Tampico, México

8:47 AM CST en Diciembre 13, 2017 (GMT -0600)
Gen Francisco Javier Mina

Tiempo Historia de MMTM - Junio, 2017

Change the Weather History Date:

Lunes, Junio 19, 2017

  Actual Average Record
Temperature  
Temperatura media 86 ° F -  
Temperatura máxima 96 ° F 89 ° F 96 ° F (2017)
Temperatura mínima 77 ° F 74 ° F 71 ° F (2016)
Cooling Degree Days 22    
Growing Degree Days 36 (Base 50)    
Moisture  
Punto de rocío 75 ° F    
Average Humidity 73    
Maximum Humidity 96    
Minimum Humidity 41    
Precipitación  
Precipitación 0.00 pul 0.16 pul - ()
Presión al nivel del mar  
Presión al nivel del mar 29.84 pul    
Viento  
Velocidad del viento 7 mph ()    
Velocidad máxima del viento 15 mph    
Max Gust Speed -    
Visibilidad 9.4 Millas    
Eventos      
Averages and records for this station are not official NWS values.
T = Trace of Precipitation, MM = Missing Value Source: Averaged Metar Reports

Daily Weather History Graph

Daily Weather History Graph

Search for Another Location

Airport or City:

Trip Planner

Search our weather history database for the weather conditions in past years. The results will help you decide how hot, cold, wet, or windy it might be!

Date:

Astronomía

Jun. 19, 2017 Salida Puesta
Hora real 6:47 AM CDT 8:17 PM CDT
Crepúsculo civil 6:22 AM CDT 8:43 PM CDT
Crepúsculo náutico 5:52 AM CDT 9:13 PM CDT
Crepúsculo astronómico 5:21 AM CDT 9:44 PM CDT
Luna 3:00 AM CDT (6/19) 3:44 PM CDT (6/19)
Horas de luz 14h 20m
Horas de luz
13h 30m
Creciente menguante, 26% of the Moon is Illuminated
Jun 19
Creciente menguante
Jun 23
Nueva
Jun 30
Cuarto creciente
Jul 8
Luna llena
Jul 16
Cuarto menguante

Hourly Weather History & Observations

Hora (CDT) Temp. Índice de calor Punto de rocío Humedad Presión Visibilidad Wind Dir Velocidad del viento Velocidad de ráfagas Precip Eventos Condiciones
12:40 AM 81 ° F - 78 ° F 88% 29.89 pul 6 mi ESE 6.7 mph - -   Nubes dispersas
3:40 AM 80 ° F - 78 ° F 93% 29.86 pul 6 mi SE 2.2 mph - -   Nubes dispersas
5:59 AM 77.0 ° F - 75.2 ° F 94% 29.80 pul 7.0 mi ESE 4.6 mph - N/A   Nubes dispersas
6:40 AM 78 ° F - 77 ° F 96% 29.86 pul 11 mi NNO 2.2 mph - -   Nubes dispersas
6:41 AM 77.0 ° F - 75.2 ° F 94% 29.80 pul 7.0 mi ESE 6.9 mph - N/A   Muy nublado
7:44 AM 80.6 ° F 87.1 ° F 77.0 ° F 89% 29.83 pul 7.0 mi ESE 11.5 mph - N/A   Muy nublado
8:48 AM 84.2 ° F 94.1 ° F 77.0 ° F 79% 29.85 pul 8.0 mi ESE 11.5 mph - N/A   Muy nublado
9:42 AM 84.2 ° F 92.3 ° F 75.2 ° F 74% 29.85 pul 8.0 mi ESE 13.8 mph - N/A   Muy nublado
9:45 AM 87 ° F - 76 ° F 61% 29.88 pul 16 mi SO 4.5 mph - -   Nubes dispersas
10:40 AM 86.0 ° F 93.4 ° F 73.4 ° F 66% 29.85 pul 8.0 mi SSO 13.8 mph - N/A   Muy nublado
11:46 AM 89.6 ° F 98.2 ° F 73.4 ° F 59% 29.85 pul 8.0 mi SSO 11.5 mph - N/A   Muy nublado
12:41 PM 89.6 ° F 99.8 ° F 75.2 ° F 62% 29.79 pul 8.0 mi SSO 13.8 mph - N/A   Muy nublado
12:45 PM 95 ° F - 74 ° F 41% 29.87 pul 16 mi SO 4.5 mph - -   Parcialmente nublado
1:43 PM 89.6 ° F 99.8 ° F 75.2 ° F 62% 29.83 pul 8.0 mi Este 13.8 mph - N/A   Muy nublado
2:40 PM 87.8 ° F 95.6 ° F 73.4 ° F 62% 29.83 pul 8.0 mi Este 13.8 mph - N/A   Muy nublado
3:40 PM 94 ° F - 74 ° F 43% 29.85 pul 16 mi Este 13.4 mph - -   Nubes dispersas
3:42 PM 89.6 ° F 99.8 ° F 75.2 ° F 62% 29.83 pul 8.0 mi NE 13.8 mph - N/A   Muy nublado
4:41 PM 87.8 ° F 97.6 ° F 75.2 ° F 66% 29.80 pul 10.0 mi Este 15.0 mph - N/A   Nubes dispersas
5:45 PM 86.0 ° F 95.1 ° F 75.2 ° F 70% 29.79 pul 10.0 mi Norte - - N/A   Parcialmente nublado
6:40 PM 88 ° F - 76 ° F 60% 29.85 pul 16 mi ENE 11.2 mph - -   Nubes dispersas
6:44 PM 86.0 ° F 95.1 ° F 75.2 ° F 70% 29.80 pul 10.0 mi Norte - - N/A   Parcialmente nublado
7:41 PM 84.2 ° F 92.3 ° F 75.2 ° F 74% 29.82 pul 10.0 mi Norte - - N/A   Parcialmente nublado
8:42 PM 82.4 ° F 89.5 ° F 75.2 ° F 79% 29.85 pul 10.0 mi Norte - - N/A   Parcialmente nublado
9:40 PM 82 ° F - 78 ° F 83% 29.90 pul 6 mi Este 4.5 mph - -   Nubes dispersas
9:45 PM 80.6 ° F 86.2 ° F 75.2 ° F 84% 29.87 pul 8.0 mi Norte - - N/A   Parcialmente nublado
10:40 PM 80.6 ° F 86.2 ° F 75.2 ° F 84% 29.89 pul 8.0 mi Norte - - N/A   Nubes dispersas